LGR888 GMAT-GCFV

Flight info

Callsign LGR888
Flight time 1h 24m
Altitude 3000
Route 281436N0114149W 280505N0120717W 280009N0123314W 275718N0125449W DCT FV
Aircraft R66/L-SFG/C

Departure

Time 2026-05-08 05:37
Airport Tan Tan Airport (GMAT)

Arrival

Time 2026-05-08 07:01
Airport Fuerteventura Airport (GCFV)
Time Latitude Longitude Altitude Speed Heading
2026-05-08 05:27 28.44550 -11.15948 635 ft 0 kts 129°
2026-05-08 05:32 28.44543 -11.15946 643 ft 9 kts 67°
2026-05-08 05:32 28.44626 -11.15985 690 ft 25 kts 284°
2026-05-08 05:33 28.44651 -11.16086 638 ft 0 kts 313°
2026-05-08 05:33 28.44662 -11.16097 648 ft 7 kts 334°
2026-05-08 05:33 28.44707 -11.16147 659 ft 12 kts 12°
2026-05-08 05:33 28.44882 -11.16080 668 ft 42 kts 27°
2026-05-08 05:34 28.45182 -11.15902 673 ft 52 kts 30°
2026-05-08 05:34 28.45492 -11.15727 659 ft 41 kts 32°
2026-05-08 05:34 28.45686 -11.15606 655 ft 29 kts 37°
2026-05-08 05:34 28.45779 -11.15536 633 ft 3 kts 87°
2026-05-08 05:35 28.45791 -11.15538 651 ft 6 kts 87°
2026-05-08 05:35 28.45793 -11.15483 659 ft 9 kts 340°
2026-05-08 05:35 28.45846 -11.15507 679 ft 2 kts 239°
2026-05-08 05:35 28.45832 -11.15528 630 ft 0 kts 228°
2026-05-08 05:36 28.45781 -11.15575 665 ft 41 kts 236°
2026-05-08 05:36 28.45323 -11.15847 740 ft 96 kts 208°
2026-05-08 05:36 28.44659 -11.16190 880 ft 107 kts 217°
2026-05-08 05:37 28.44211 -11.16855 1073 ft 107 kts 240°
2026-05-08 05:37 28.43800 -11.17567 1241 ft 109 kts 240°
2026-05-08 05:37 28.43231 -11.18540 1477 ft 110 kts 240°
2026-05-08 05:37 28.42954 -11.19019 1594 ft 110 kts 241°
2026-05-08 05:38 28.42536 -11.19749 1769 ft 110 kts 241°
2026-05-08 05:38 28.42119 -11.20474 1955 ft 109 kts 241°
2026-05-08 05:38 28.41692 -11.21199 2132 ft 110 kts 242°
2026-05-08 05:38 28.41260 -11.21924 2305 ft 111 kts 241°
2026-05-08 05:39 28.40827 -11.22653 2483 ft 111 kts 241°
2026-05-08 05:39 28.40395 -11.23383 2655 ft 111 kts 242°
2026-05-08 05:39 28.39969 -11.24114 2830 ft 111 kts 242°
2026-05-08 05:39 28.39532 -11.24850 2966 ft 116 kts 242°
2026-05-08 05:40 28.39078 -11.25645 2981 ft 123 kts 242°
2026-05-08 05:40 28.38444 -11.26770 2985 ft 127 kts 242°
2026-05-08 05:40 28.38128 -11.27336 2985 ft 128 kts 242°
2026-05-08 05:40 28.37649 -11.28192 2985 ft 128 kts 241°
2026-05-08 05:41 28.37173 -11.29048 2985 ft 129 kts 241°
2026-05-08 05:41 28.36691 -11.29913 2985 ft 129 kts 242°
2026-05-08 05:41 28.36214 -11.30771 2986 ft 128 kts 242°
2026-05-08 05:41 28.35737 -11.31638 2986 ft 128 kts 242°
2026-05-08 05:42 28.35281 -11.32491 2978 ft 127 kts 245°
2026-05-08 05:42 28.34902 -11.33399 2981 ft 125 kts 250°
2026-05-08 05:42 28.34452 -11.34615 2985 ft 125 kts 251°
2026-05-08 05:42 28.34236 -11.35212 2984 ft 125 kts 252°
2026-05-08 05:43 28.33929 -11.36134 2985 ft 124 kts 255°
2026-05-08 05:43 28.33641 -11.37069 2986 ft 124 kts 255°
2026-05-08 05:43 28.33360 -11.37989 2987 ft 124 kts 255°
2026-05-08 05:43 28.33072 -11.38917 2990 ft 125 kts 255°
2026-05-08 05:44 28.32781 -11.39857 2990 ft 125 kts 255°
2026-05-08 05:44 28.32489 -11.40792 2987 ft 125 kts 255°
2026-05-08 05:44 28.32194 -11.41721 2988 ft 125 kts 255°
2026-05-08 05:44 28.31903 -11.42653 2988 ft 126 kts 255°
2026-05-08 05:45 28.31610 -11.43586 2988 ft 126 kts 255°
2026-05-08 05:45 28.31314 -11.44531 2987 ft 126 kts 255°
2026-05-08 05:45 28.31033 -11.45460 2988 ft 125 kts 255°
2026-05-08 05:45 28.30742 -11.46397 2989 ft 125 kts 255°
2026-05-08 05:46 28.30451 -11.47336 2989 ft 125 kts 255°
2026-05-08 05:46 28.30163 -11.48269 2989 ft 125 kts 255°
2026-05-08 05:46 28.29875 -11.49190 2989 ft 125 kts 255°
2026-05-08 05:46 28.29577 -11.50136 2987 ft 125 kts 256°
2026-05-08 05:47 28.29341 -11.51086 2987 ft 125 kts 259°
2026-05-08 05:47 28.29105 -11.52031 2988 ft 125 kts 258°
2026-05-08 05:47 28.28872 -11.52974 3022 ft 122 kts 259°
2026-05-08 05:47 28.28560 -11.54213 3057 ft 123 kts 258°
2026-05-08 05:48 28.28404 -11.54850 3037 ft 125 kts 259°
2026-05-08 05:48 28.28171 -11.55793 3035 ft 125 kts 259°
2026-05-08 05:48 28.27943 -11.56752 3020 ft 126 kts 259°
2026-05-08 05:48 28.27714 -11.57708 3019 ft 125 kts 259°
2026-05-08 05:49 28.27479 -11.58662 2994 ft 126 kts 259°
2026-05-08 05:49 28.27250 -11.59622 2992 ft 125 kts 259°
2026-05-08 05:49 28.27017 -11.60564 2992 ft 125 kts 258°
2026-05-08 05:49 28.26669 -11.61824 2992 ft 125 kts 257°
2026-05-08 05:50 28.26485 -11.62444 2994 ft 125 kts 256°
2026-05-08 05:50 28.26201 -11.63382 2993 ft 125 kts 256°
2026-05-08 05:50 28.25916 -11.64330 2992 ft 125 kts 256°
2026-05-08 05:50 28.25646 -11.65259 2992 ft 126 kts 256°
2026-05-08 05:51 28.25366 -11.66211 2994 ft 126 kts 255°
2026-05-08 05:51 28.25092 -11.67152 2995 ft 126 kts 256°
2026-05-08 05:51 28.24816 -11.68098 2996 ft 126 kts 255°
2026-05-08 05:51 28.24509 -11.69035 2996 ft 127 kts 252°
2026-05-08 05:52 28.24172 -11.69974 2995 ft 128 kts 251°
2026-05-08 05:52 28.23822 -11.70900 2996 ft 128 kts 250°
2026-05-08 05:52 28.23477 -11.71821 2996 ft 128 kts 250°
2026-05-08 05:52 28.23129 -11.72745 2996 ft 127 kts 250°
2026-05-08 05:53 28.22775 -11.73672 2995 ft 127 kts 250°
2026-05-08 05:53 28.22422 -11.74583 2995 ft 127 kts 250°
2026-05-08 05:53 28.22069 -11.75505 2991 ft 127 kts 251°
2026-05-08 05:53 28.21714 -11.76435 2988 ft 127 kts 250°
2026-05-08 05:54 28.21373 -11.77351 2986 ft 127 kts 250°
2026-05-08 05:54 28.21019 -11.78277 2985 ft 127 kts 251°
2026-05-08 05:54 28.20557 -11.79504 2983 ft 127 kts 250°
2026-05-08 05:54 28.20327 -11.80118 2983 ft 127 kts 250°
2026-05-08 05:55 28.19980 -11.81036 2984 ft 127 kts 250°
2026-05-08 05:55 28.19627 -11.81962 2983 ft 127 kts 251°
2026-05-08 05:55 28.19277 -11.82887 2984 ft 127 kts 250°
2026-05-08 05:55 28.18931 -11.83804 2985 ft 128 kts 250°
2026-05-08 05:56 28.18581 -11.84735 2984 ft 128 kts 251°
2026-05-08 05:56 28.18229 -11.85670 2975 ft 126 kts 250°
2026-05-08 05:56 28.17899 -11.86559 2975 ft 120 kts 250°
2026-05-08 05:56 28.17580 -11.87425 2981 ft 117 kts 251°
2026-05-08 05:57 28.17264 -11.88264 2981 ft 115 kts 250°
2026-05-08 05:57 28.16952 -11.89101 2983 ft 114 kts 250°
2026-05-08 05:57 28.16639 -11.89940 2982 ft 115 kts 250°
2026-05-08 05:57 28.16328 -11.90772 2983 ft 114 kts 250°
2026-05-08 05:58 28.16023 -11.91594 2983 ft 114 kts 250°
2026-05-08 05:58 28.15707 -11.92431 2982 ft 115 kts 250°
2026-05-08 05:58 28.15390 -11.93267 2983 ft 115 kts 250°
2026-05-08 05:58 28.14970 -11.94384 2983 ft 116 kts 250°
2026-05-08 05:59 28.14760 -11.94943 2981 ft 116 kts 250°
2026-05-08 05:59 28.14444 -11.95781 2982 ft 116 kts 250°
2026-05-08 05:59 28.14123 -11.96624 2982 ft 116 kts 250°
2026-05-08 05:59 28.13803 -11.97464 2981 ft 115 kts 250°
2026-05-08 06:00 28.13485 -11.98293 2983 ft 115 kts 250°
2026-05-08 06:00 28.13158 -11.99126 2980 ft 115 kts 250°
2026-05-08 06:00 28.12834 -11.99952 2981 ft 115 kts 249°
2026-05-08 06:00 28.12515 -12.00785 2982 ft 115 kts 250°
2026-05-08 06:01 28.12200 -12.01618 2983 ft 115 kts 249°
2026-05-08 06:01 28.11886 -12.02462 2984 ft 115 kts 250°
2026-05-08 06:01 28.11576 -12.03298 2981 ft 115 kts 251°
2026-05-08 06:01 28.11259 -12.04133 2983 ft 115 kts 250°
2026-05-08 06:02 28.10946 -12.04960 2982 ft 115 kts 250°
2026-05-08 06:02 28.10631 -12.05797 2985 ft 115 kts 250°
2026-05-08 06:02 28.10321 -12.06635 2990 ft 114 kts 250°
2026-05-08 06:02 28.10015 -12.07458 2995 ft 114 kts 251°
2026-05-08 06:03 28.09704 -12.08286 3000 ft 114 kts 250°
2026-05-08 06:03 28.09387 -12.09119 3004 ft 114 kts 250°
2026-05-08 06:03 28.09071 -12.09948 3001 ft 114 kts 250°
2026-05-08 06:03 28.08799 -12.10791 2997 ft 113 kts 256°
2026-05-08 06:04 28.08612 -12.11647 2999 ft 112 kts 261°
2026-05-08 06:04 28.08441 -12.12505 3003 ft 112 kts 260°
2026-05-08 06:04 28.08260 -12.13376 3004 ft 112 kts 259°
2026-05-08 06:04 28.08069 -12.14232 3002 ft 112 kts 260°
2026-05-08 06:05 28.07891 -12.15091 3002 ft 112 kts 261°
2026-05-08 06:05 28.07716 -12.15950 3003 ft 112 kts 260°
2026-05-08 06:05 28.07541 -12.16807 3003 ft 112 kts 260°
2026-05-08 06:05 28.07366 -12.17667 3002 ft 112 kts 260°
2026-05-08 06:06 28.07138 -12.18814 3003 ft 112 kts 260°
2026-05-08 06:06 28.07018 -12.19390 3000 ft 112 kts 260°
2026-05-08 06:06 28.06840 -12.20259 2995 ft 113 kts 260°
2026-05-08 06:06 28.06660 -12.21126 2990 ft 114 kts 260°
2026-05-08 06:07 28.06474 -12.21997 2985 ft 114 kts 260°
2026-05-08 06:07 28.06285 -12.22880 2982 ft 114 kts 260°
2026-05-08 06:07 28.06100 -12.23753 2981 ft 114 kts 260°
2026-05-08 06:07 28.05923 -12.24621 2981 ft 114 kts 260°
2026-05-08 06:08 28.05747 -12.25492 2981 ft 113 kts 260°
2026-05-08 06:08 28.05574 -12.26371 2981 ft 113 kts 260°
2026-05-08 06:08 28.05430 -12.27242 2964 ft 112 kts 272°
2026-05-08 06:08 28.05609 -12.28061 2976 ft 107 kts 290°
2026-05-08 06:09 28.05850 -12.28865 2980 ft 107 kts 291°
2026-05-08 06:09 28.06102 -12.29655 2982 ft 107 kts 292°
2026-05-08 06:09 28.06360 -12.30447 2984 ft 107 kts 292°
2026-05-08 06:09 28.06712 -12.31497 2986 ft 106 kts 293°
2026-05-08 06:10 28.06891 -12.32021 2987 ft 106 kts 293°
2026-05-08 06:10 28.07159 -12.32803 2988 ft 106 kts 294°
2026-05-08 06:10 28.07429 -12.33573 2989 ft 106 kts 294°
2026-05-08 06:10 28.07703 -12.34356 2989 ft 107 kts 294°
2026-05-08 06:11 28.07980 -12.35143 2990 ft 107 kts 294°
2026-05-08 06:11 28.08260 -12.35931 2988 ft 108 kts 294°
2026-05-08 06:11 28.08536 -12.36711 2987 ft 108 kts 294°
2026-05-08 06:11 28.08818 -12.37500 2987 ft 108 kts 294°
2026-05-08 06:12 28.09102 -12.38297 2988 ft 108 kts 294°
2026-05-08 06:12 28.09380 -12.39080 2988 ft 107 kts 294°
2026-05-08 06:12 28.09661 -12.39870 2991 ft 107 kts 294°
2026-05-08 06:12 28.09940 -12.40657 2991 ft 107 kts 294°
2026-05-08 06:13 28.10218 -12.41433 2992 ft 107 kts 294°
2026-05-08 06:13 28.10497 -12.42215 2993 ft 107 kts 294°
2026-05-08 06:13 28.10778 -12.43001 2992 ft 107 kts 294°
2026-05-08 06:13 28.11058 -12.43788 2992 ft 107 kts 294°
2026-05-08 06:14 28.11337 -12.44571 2992 ft 107 kts 294°
2026-05-08 06:14 28.11616 -12.45349 2993 ft 107 kts 294°
2026-05-08 06:14 28.11896 -12.46136 2991 ft 108 kts 294°
2026-05-08 06:14 28.12178 -12.46929 2991 ft 107 kts 294°
2026-05-08 06:15 28.12458 -12.47710 2992 ft 107 kts 294°
2026-05-08 06:15 28.12739 -12.48499 2992 ft 107 kts 294°
2026-05-08 06:15 28.13018 -12.49282 2995 ft 107 kts 294°
2026-05-08 06:15 28.13300 -12.50071 2998 ft 107 kts 294°
2026-05-08 06:16 28.13578 -12.50852 3000 ft 107 kts 294°
2026-05-08 06:16 28.13857 -12.51638 3001 ft 107 kts 294°
2026-05-08 06:16 28.14134 -12.52417 3001 ft 107 kts 294°
2026-05-08 06:16 28.14417 -12.53210 3001 ft 107 kts 294°
2026-05-08 06:17 28.14973 -12.54772 3001 ft 107 kts 294°
2026-05-08 06:17 28.15251 -12.55555 3001 ft 107 kts 294°
2026-05-08 06:17 28.15530 -12.56335 3002 ft 107 kts 294°
2026-05-08 06:18 28.15810 -12.57124 3002 ft 108 kts 294°
2026-05-08 06:18 28.16093 -12.57915 3001 ft 108 kts 294°
2026-05-08 06:18 28.16369 -12.58694 3001 ft 108 kts 293°
2026-05-08 06:18 28.16655 -12.59494 3001 ft 108 kts 293°
2026-05-08 06:19 28.17027 -12.60538 3001 ft 108 kts 293°
2026-05-08 06:19 28.17217 -12.61075 3001 ft 108 kts 293°
2026-05-08 06:19 28.17497 -12.61867 3001 ft 108 kts 293°
2026-05-08 06:19 28.17779 -12.62661 3001 ft 108 kts 293°
2026-05-08 06:20 28.18057 -12.63446 3000 ft 108 kts 293°
2026-05-08 06:20 28.18338 -12.64237 3001 ft 108 kts 293°
2026-05-08 06:20 28.18619 -12.65027 3000 ft 107 kts 293°
2026-05-08 06:20 28.18898 -12.65812 3001 ft 107 kts 292°
2026-05-08 06:21 28.19175 -12.66597 3001 ft 107 kts 292°
2026-05-08 06:21 28.19455 -12.67382 3001 ft 107 kts 292°
2026-05-08 06:21 28.19733 -12.68168 3001 ft 107 kts 293°
2026-05-08 06:21 28.20011 -12.68951 3000 ft 107 kts 292°
2026-05-08 06:22 28.20291 -12.69740 3000 ft 108 kts 292°
2026-05-08 06:22 28.20571 -12.70530 3000 ft 108 kts 293°
2026-05-08 06:22 28.20853 -12.71324 3001 ft 108 kts 293°
2026-05-08 06:22 28.21130 -12.72113 3001 ft 107 kts 293°
2026-05-08 06:23 28.21504 -12.73165 3002 ft 108 kts 293°
2026-05-08 06:23 28.21689 -12.73687 3000 ft 108 kts 293°
2026-05-08 06:23 28.21971 -12.74481 3001 ft 108 kts 293°
2026-05-08 06:23 28.22250 -12.75271 3001 ft 108 kts 293°
2026-05-08 06:24 28.22526 -12.76051 3002 ft 107 kts 293°
2026-05-08 06:24 28.22808 -12.76848 3002 ft 107 kts 293°
2026-05-08 06:24 28.23180 -12.77898 3002 ft 108 kts 292°
2026-05-08 06:24 28.23460 -12.78689 3002 ft 108 kts 292°
2026-05-08 06:25 28.23649 -12.79221 3002 ft 108 kts 293°
2026-05-08 06:25 28.23928 -12.80010 3001 ft 108 kts 292°
2026-05-08 06:25 28.24208 -12.80805 3002 ft 108 kts 292°
2026-05-08 06:25 28.24489 -12.81595 3002 ft 108 kts 292°
2026-05-08 06:26 28.24767 -12.82382 3002 ft 108 kts 292°
2026-05-08 06:26 28.25049 -12.83185 3002 ft 108 kts 292°
2026-05-08 06:26 28.25326 -12.83970 3002 ft 108 kts 292°
2026-05-08 06:26 28.25604 -12.84759 3002 ft 108 kts 292°
2026-05-08 06:27 28.25884 -12.85551 3002 ft 108 kts 292°
2026-05-08 06:27 28.26163 -12.86340 3001 ft 108 kts 292°
2026-05-08 06:27 28.26442 -12.87133 3002 ft 107 kts 292°
2026-05-08 06:27 28.26716 -12.87909 3001 ft 107 kts 292°
2026-05-08 06:28 28.26995 -12.88698 3001 ft 107 kts 292°
2026-05-08 06:28 28.27272 -12.89483 3003 ft 107 kts 292°
2026-05-08 06:28 28.27547 -12.90262 3002 ft 107 kts 292°
2026-05-08 06:28 28.27826 -12.91052 3002 ft 107 kts 292°
2026-05-08 06:29 28.28104 -12.91838 3001 ft 108 kts 291°
2026-05-08 06:29 28.28477 -12.92901 3002 ft 108 kts 292°
2026-05-08 06:29 28.28663 -12.93429 3002 ft 108 kts 292°
2026-05-08 06:29 28.28942 -12.94224 3001 ft 108 kts 292°
2026-05-08 06:30 28.29220 -12.95018 3002 ft 108 kts 292°
2026-05-08 06:30 28.29498 -12.95805 3003 ft 108 kts 292°
2026-05-08 06:30 28.29869 -12.96858 3002 ft 108 kts 292°
2026-05-08 06:30 28.30055 -12.97388 3002 ft 108 kts 292°
2026-05-08 06:31 28.30337 -12.98186 3001 ft 108 kts 292°
2026-05-08 06:31 28.30613 -12.98972 3001 ft 108 kts 292°
2026-05-08 06:31 28.30894 -12.99770 3002 ft 108 kts 292°
2026-05-08 06:31 28.31176 -13.00568 3002 ft 108 kts 292°
2026-05-08 06:32 28.31454 -13.01359 3002 ft 109 kts 292°
2026-05-08 06:32 28.31734 -13.02157 3002 ft 109 kts 292°
2026-05-08 06:32 28.32013 -13.02951 3002 ft 109 kts 292°
2026-05-08 06:32 28.32294 -13.03752 3001 ft 108 kts 292°
2026-05-08 06:33 28.32574 -13.04552 3002 ft 108 kts 292°
2026-05-08 06:33 28.32849 -13.05336 3001 ft 108 kts 292°
2026-05-08 06:33 28.33129 -13.06134 3001 ft 107 kts 292°
2026-05-08 06:33 28.33406 -13.06926 3001 ft 107 kts 292°
2026-05-08 06:34 28.33775 -13.07972 3002 ft 108 kts 293°
2026-05-08 06:34 28.33959 -13.08495 3001 ft 108 kts 292°
2026-05-08 06:34 28.34240 -13.09296 3002 ft 108 kts 292°
2026-05-08 06:34 28.34610 -13.10348 3002 ft 108 kts 291°
2026-05-08 06:35 28.34890 -13.11146 3002 ft 108 kts 291°
2026-05-08 06:35 28.35074 -13.11671 3001 ft 108 kts 291°
2026-05-08 06:35 28.35350 -13.12463 3001 ft 108 kts 292°
2026-05-08 06:35 28.35629 -13.13261 3002 ft 108 kts 292°
2026-05-08 06:36 28.35997 -13.14313 3002 ft 108 kts 292°
2026-05-08 06:36 28.36273 -13.15101 3003 ft 107 kts 292°
2026-05-08 06:36 28.36460 -13.15635 3003 ft 108 kts 292°
2026-05-08 06:36 28.36737 -13.16428 3003 ft 107 kts 292°
2026-05-08 06:37 28.37013 -13.17212 3004 ft 108 kts 292°
2026-05-08 06:37 28.37290 -13.18005 3004 ft 108 kts 292°
2026-05-08 06:37 28.37658 -13.19055 3005 ft 107 kts 292°
2026-05-08 06:37 28.37841 -13.19581 3005 ft 107 kts 292°
2026-05-08 06:38 28.38119 -13.20372 3005 ft 107 kts 292°
2026-05-08 06:38 28.38396 -13.21166 3006 ft 107 kts 292°
2026-05-08 06:38 28.38667 -13.21940 3007 ft 107 kts 292°
2026-05-08 06:38 28.39032 -13.22987 3009 ft 106 kts 291°
2026-05-08 06:39 28.39308 -13.23774 3010 ft 106 kts 292°
2026-05-08 06:39 28.39489 -13.24293 3010 ft 107 kts 292°
2026-05-08 06:39 28.39761 -13.25075 3009 ft 107 kts 292°
2026-05-08 06:39 28.40126 -13.26120 3006 ft 107 kts 292°
2026-05-08 06:40 28.40311 -13.26652 3004 ft 107 kts 292°
2026-05-08 06:40 28.40585 -13.27434 3003 ft 107 kts 292°
2026-05-08 06:40 28.40859 -13.28220 3004 ft 107 kts 292°
2026-05-08 06:40 28.41136 -13.29014 3007 ft 107 kts 292°
2026-05-08 06:41 28.41411 -13.29802 3008 ft 107 kts 292°
2026-05-08 06:41 28.41684 -13.30585 3009 ft 107 kts 292°
2026-05-08 06:41 28.41960 -13.31369 3010 ft 107 kts 292°
2026-05-08 06:41 28.42241 -13.32162 3010 ft 107 kts 292°
2026-05-08 06:42 28.42516 -13.32943 3011 ft 108 kts 292°
2026-05-08 06:42 28.42886 -13.34001 3007 ft 108 kts 292°
2026-05-08 06:42 28.43070 -13.34528 3005 ft 107 kts 292°
2026-05-08 06:42 28.43349 -13.35327 3001 ft 107 kts 292°
2026-05-08 06:43 28.43621 -13.36107 2997 ft 107 kts 292°
2026-05-08 06:43 28.43896 -13.36895 2995 ft 107 kts 292°
2026-05-08 06:43 28.44172 -13.37686 2995 ft 107 kts 292°
2026-05-08 06:43 28.44443 -13.38465 2995 ft 107 kts 292°
2026-05-08 06:44 28.44715 -13.39249 2995 ft 106 kts 292°
2026-05-08 06:44 28.44991 -13.40039 2996 ft 106 kts 292°
2026-05-08 06:44 28.45263 -13.40820 2997 ft 106 kts 291°
2026-05-08 06:44 28.45535 -13.41605 2998 ft 107 kts 291°
2026-05-08 06:45 28.45810 -13.42395 3000 ft 107 kts 291°
2026-05-08 06:45 28.46082 -13.43176 3000 ft 107 kts 291°
2026-05-08 06:45 28.46357 -13.43968 3000 ft 107 kts 291°
2026-05-08 06:45 28.46629 -13.44752 3001 ft 107 kts 291°
2026-05-08 06:46 28.46902 -13.45540 3000 ft 107 kts 291°
2026-05-08 06:46 28.47175 -13.46325 3001 ft 106 kts 291°
2026-05-08 06:46 28.47447 -13.47111 3001 ft 106 kts 291°
2026-05-08 06:46 28.47718 -13.47890 3001 ft 106 kts 291°
2026-05-08 06:47 28.47990 -13.48677 3001 ft 107 kts 292°
2026-05-08 06:47 28.48261 -13.49459 3001 ft 106 kts 292°
2026-05-08 06:47 28.48533 -13.50240 3001 ft 106 kts 292°
2026-05-08 06:47 28.48804 -13.51021 3001 ft 106 kts 292°
2026-05-08 06:48 28.49077 -13.51808 3002 ft 107 kts 291°
2026-05-08 06:48 28.49351 -13.52597 3002 ft 107 kts 291°
2026-05-08 06:48 28.49623 -13.53383 3002 ft 107 kts 291°
2026-05-08 06:48 28.49898 -13.54177 3001 ft 107 kts 291°
2026-05-08 06:49 28.50170 -13.54960 3002 ft 107 kts 291°
2026-05-08 06:49 28.50441 -13.55745 3003 ft 107 kts 291°
2026-05-08 06:49 28.50718 -13.56545 3003 ft 107 kts 291°
2026-05-08 06:49 28.50985 -13.57321 3004 ft 106 kts 292°
2026-05-08 06:50 28.51259 -13.58113 3004 ft 106 kts 292°
2026-05-08 06:50 28.51530 -13.58892 3004 ft 106 kts 292°
2026-05-08 06:50 28.51802 -13.59677 3003 ft 106 kts 292°
2026-05-08 06:50 28.52073 -13.60459 3004 ft 106 kts 291°
2026-05-08 06:51 28.52344 -13.61246 3004 ft 106 kts 291°
2026-05-08 06:51 28.52614 -13.62026 3005 ft 106 kts 291°
2026-05-08 06:51 28.52886 -13.62811 3006 ft 106 kts 291°
2026-05-08 06:51 28.53155 -13.63589 3006 ft 106 kts 291°
2026-05-08 06:52 28.53397 -13.64382 3007 ft 107 kts 286°
2026-05-08 06:52 28.53551 -13.65222 3009 ft 107 kts 279°
2026-05-08 06:52 28.53608 -13.66069 3011 ft 108 kts 272°
2026-05-08 06:52 28.53568 -13.66933 3010 ft 109 kts 265°
2026-05-08 06:53 28.53431 -13.67788 3009 ft 110 kts 259°
2026-05-08 06:53 28.53118 -13.68576 3012 ft 115 kts 227°
2026-05-08 06:53 28.52475 -13.69132 2986 ft 116 kts 231°
2026-05-08 06:53 28.52181 -13.70240 2999 ft 108 kts 265°
2026-05-08 06:54 28.52178 -13.70805 3000 ft 108 kts 272°
2026-05-08 06:54 28.52181 -13.71659 3005 ft 108 kts 272°
2026-05-08 06:54 28.52189 -13.72524 2959 ft 111 kts 272°
2026-05-08 06:54 28.52208 -13.73420 2870 ft 112 kts 272°
2026-05-08 06:55 28.52234 -13.74286 2776 ft 108 kts 272°
2026-05-08 06:55 28.52288 -13.75126 2688 ft 104 kts 275°
2026-05-08 06:55 28.52351 -13.75939 2608 ft 102 kts 275°
2026-05-08 06:55 28.52431 -13.76999 2503 ft 100 kts 274°
2026-05-08 06:56 28.52438 -13.77498 2588 ft 88 kts 273°
2026-05-08 06:56 28.52501 -13.78228 2425 ft 99 kts 275°
2026-05-08 06:56 28.52535 -13.79046 2150 ft 115 kts 272°
2026-05-08 06:56 28.52619 -13.79945 1946 ft 107 kts 277°
2026-05-08 06:57 28.52763 -13.81004 1729 ft 97 kts 275°
2026-05-08 06:57 28.52824 -13.81516 1544 ft 98 kts 270°
2026-05-08 06:57 28.52776 -13.82233 1424 ft 83 kts 257°
2026-05-08 06:57 28.52618 -13.82981 1406 ft 64 kts 250°
2026-05-08 06:58 28.52506 -13.83296 1425 ft 63 kts 245°
2026-05-08 06:58 28.52301 -13.83771 1400 ft 68 kts 245°
2026-05-08 06:58 28.52096 -13.84433 1419 ft 69 kts 254°
2026-05-08 06:58 28.51972 -13.84773 1440 ft 71 kts 245°
2026-05-08 06:59 28.51715 -13.85314 1386 ft 80 kts 238°
2026-05-08 06:59 28.51316 -13.85824 1268 ft 93 kts 219°
2026-05-08 06:59 28.50698 -13.86093 1143 ft 101 kts 191°
2026-05-08 06:59 28.49966 -13.86233 868 ft 110 kts 182°
2026-05-08 07:00 28.49182 -13.86206 559 ft 114 kts 173°
2026-05-08 07:00 28.48444 -13.86219 482 ft 95 kts 183°
2026-05-08 07:00 28.47830 -13.86279 507 ft 80 kts 182°
2026-05-08 07:00 28.47293 -13.86286 461 ft 79 kts 182°
2026-05-08 07:01 28.46671 -13.86313 191 ft 94 kts 182°
2026-05-08 07:01 28.46077 -13.86354 92 ft 71 kts 178°
2026-05-08 07:01 28.45757 -13.86372 144 ft 15 kts 197°